www.pogodaiklimat.ru

Погода и климат >> Архив погоды >> Россия >> Якутия >> Амга


ПОГОДА в Амге

  • Прогноз погоды в Амге
  • Монитор погоды в Амге

АРХИВ ПОГОДЫ в Амге

Время (UTC), дата Ветер
(напр.,м/с)
 
Видим.   Явления Облачность Т
(С)
Тd
(С)
f
(%)
Тe
(С)
Тes
(С)
Комфортность P
(гПа)
Po
(гПа)
Тmin
(С)
Tmax
(С)
R
(мм)
R24
(мм)
S
(см)
15 13.08 штиль 0 500 м туман ?/? +11.4 +11.4 100 +11 +11 1009.3 991.9
18 13.08 штиль 0 500 м туман ?/? +8.8 +8.8 100 +8 +8 1009.8 992.2
21 13.08 В 1 500 м туман ?/? +9.2 +9.2 100 +8 +8 1010.3 992.6
00 14.08 СВ 3 50 км {туман} 4/0
[Ci fib]
+17.0 +12.1 73 +17 +21 1008.9 991.8 +7.8
03 14.08 В 4 50 км 8/3 600 м
[Cu hum Ci fib]
+22.9 +11.1 47 +25 +29 комфорт 1007.2 990.5
06 14.08 В 5
{11}
50 км 8/4 600 м
[Sc diur, vesp Cs]
+24.2 +9.6 40 +25 +27 комфорт 1006.7 990.0
09 14.08 ЮВ 4
{11}
50 км 10/3 600 м
[Sc diur, vesp As op Ci sp]
+23.0 +9.6 43 +25 +25 комфорт 1006.7 990.0
12 14.08 В 3 50 км 10/0
[Ac trans Ci sp]
+16.9 +11.4 70 +17 +17 1007.3 990.2 +24.5
15 14.08 СВ 4 20 км 10/0
[Ac trans Ci fib]
+16.0 +11.4 74 +15 +15 1007.2 990.0
18 14.08 СВ 5 20 км 10/6 600 м
[Sc Ac trans Ci fib]
+16.9 +9.9 63 +16 +16 1006.9 989.8
21 14.08 В 2 50 км 10/3 600 м
[Sc Ac trans Ci fib]
+16.7 +10.1 65 +17 +17 1007.5 990.4
00 15.08 В 4 50 км 10/0
[Ac As Ci fib]
+19.1 +10.6 58 +20 +22 1007.7 990.8 +13.2
03 15.08 В 4 50 км {ливн. осадки} 10/3 600 м
[Cb calv Ac As Ci fib]
+19.2 +11.4 61 +20 +23 1008.1 991.2
06 15.08 ЮВ 1 20 км в посл. час ливневой дождь 10/6 600 м
[Cb calv Ac As Ci fib]
+18.5 +14.7 79 +20 +22 1008.8 991.8
09 15.08 штиль 0 20 км {ливн. осадки} 10/4 600 м
[Cb calv Ac trans Ci fib]
+18.1 +16.4 90 +18 +19 1009.3 992.3
12 15.08 В 3 20 км {ливн. осадки} 10/5 600 м
[Cb calv Ac trans Ci fib]
+17.4 +15.7 90 +17 +17 1009.8 992.7 +19.7 3
15 15.08 В 3 20 км 10/6 600 м
[Sc Ac trans Ci fib]
+17.2 +11.7 70 +17 +17 1010.2 993.1
18 15.08 В 3 20 км 10/0
[Ac trans Ci fib]
+14.6 +11.8 83 +14 +14 1010.8 993.5
21 15.08 В 2 20 км в посл. час ливневой дождь 10/6 600 м
[Cb calv Ac trans Ci fib]
+15.0 +12.3 84 +15 +15 1011.7 994.3
00 16.08 В 3 20 км в посл. час дождь {ливн. осадки} 10/9 600 м
[Frnb As op]
+14.6 +13.3 92 +14 +14 1012.4 995.1 +14.1 5
03 16.08 В 3 50 км 10/10 600 м
[Cb cap]
+17.2 +13.9 81 +17 +17 1012.6 995.5
06 16.08 СЗ 1 50 км 10/10 600 м
[Cb cap]
+18.8 +14.5 76 +21 +21 комфорт 1012.7 995.7
09 16.08 СВ 2 50 км 10/10 600 м
[Cb cap]
+18.8 +15.4 81 +20 +20 1013.0 996.0
12 16.08 СВ 2 20 км 10/10 600 м
[Cb cap]
+18.0 +14.7 81 +19 +19 1013.4 996.3 +19.7
15 16.08 В 1 20 км 10/8 600 м
[Cb cap Ac trans]
+19.2 +13.0 67 +22 +22 комфорт 1013.3 996.3
18 16.08 С 1 20 км 10/8 600 м
[Cb cap Ac trans Ci fib]
+16.2 +11.8 75 +17 +17 1014.0 996.8
21 16.08 СВ 3 50 км 10/5 600 м
[Sc Ac As]
+14.2 +11.8 85 +13 +13 1014.8 997.4
00 17.08 В 4 50 км 10/0
[Ac trans Ci fib]
+18.1 +10.7 62 +18 +21 1014.8 997.6 +13.7
03 17.08 В 5 50 км 10/0
[Ac trans Ci fib]
+21.8 +8.1 41 +23 +26 комфорт 1014.0 997.1
06 17.08 Ю 5 50 км 10/0
[Ac trans Cs]
+21.6 +6.5 38 +22 +24 комфорт 1013.9 997.0
09 17.08 ЮВ 7 50 км 10/6 1000 м
[Sc Ac As]
+19.8 +7.3 44 +20 +20 1015.0 997.9
12 17.08 ЮВ 1 20 км 10/4 600 м
[Sc Ac As]
+16.5 +9.6 64 +17 +17 1016.4 999.1 +21.9
15 17.08 СВ 1 20 км 10/4 600 м
[Sc Ac As]
+12.1 +10.2 88 +12 +12 1016.3 998.7
18 17.08 СВ 1 20 км 10/4 600 м
[Sc Ac As]
+12.0 +9.6 85 +12 +12 1016.8 999.2
21 17.08 С 3 50 км в посл. час ливневой дождь 10/6 600 м
[Cb calv Ac As]
+12.6 +10.7 88 +11 +11 1015.6 998.1
00 18.08 СВ 3 50 км 10/6 600 м
[Cb calv Ac As]
+14.3 +9.4 72 +13 +14 1014.1 996.7 +12.0 0.0
03 18.08 ЮВ 5 50 км 10/8 600 м
[Cb cap Ac trans]
+16.9 +8.1 56 +16 +17 1014.3 997.1
06 18.08 В 4
{14}
50 км в посл. час ливневой дождь 10/6 600 м
[Cb cap Ac As]
+13.5 +10.4 82 +12 +12 1014.4 997.0
09 18.08 В 5
{12}
50 км {ливн. осадки} 10/9 600 м
[Cb cap Ac As]
+15.3 +9.3 67 +14 +14 1013.8 996.5
12 18.08 ЮВ 4
{10}
20 км в посл. час ливневой дождь 10/6 600 м
[Cb cap Ac As]
+14.7 +8.6 67 +14 +14 1014.5 997.1 +16.9 0.0
15 18.08 ЮВ 2 20 км 10/8 600 м
[Cb cap Ac As]
+14.1 +8.6 69 +14 +14 1014.7 997.3
18 18.08 ЮВ 3 50 км в посл. час ливневой дождь 10/8 600 м
[Cb cap Ac As]
+13.7 +8.3 70 +13 +13 1015.3 997.8
21 18.08 ЮВ 4 50 км {ливн. осадки} 10/6 600 м
[Cb cap Ac As]
+14.1 +7.9 66 +13 +13 1015.5 998.0
00 19.08 ЮВ 4 50 км {ливн. осадки} 10/6 600 м
[Cb calv Ac trans Ci fib]
+15.0 +7.6 61 +14 +15 1016.1 998.7 +12.6 0.0
03 19.08 ЮВ 5 50 км 10/6 600 м
[Cb calv Ac trans Ci fib]
+16.6 +8.2 58 +16 +17 1015.8 998.5
06 19.08 ЮВ 4 50 км 10/6 600 м
[Cb calv Ac trans Ci fib]
+16.9 +8.5 58 +16 +17 1015.9 998.6
09 19.08 В 2 50 км 10/8 600 м
[Cb calv Ci fib]
+16.6 +9.4 62 +17 +17 1016.5 999.3
12 19.08 штиль 0 20 км 10/6 600 м
[Sc Ac trans Ci fib]
+14.0 +11.6 85 +14 +14 1016.6 999.1 +17.4
15 19.08 СВ 2 20 км 10/6 600 м
[Cb calv Ac trans Ci fib]
+13.3 +10.4 83 +13 +13 1016.5 999.0
18 19.08 СВ 3 20 км 10/5 600 м
[Cb calv Ac trans Ci fib]
+13.4 +10.3 81 +12 +12 1016.6 999.1
21 19.08 В 3 50 км в посл. час ливневой дождь 10/6 600 м
[Cb calv Ac trans Ci fib]
+12.9 +10.4 85 +11 +12 1016.4 998.9
00 20.08 В 4 50 км {ливн. осадки} 10/10 600 м
[Cb cap]
+15.4 +10.1 71 +14 +14 1015.9 998.5 +12.7 0.0
03 20.08 В 5 50 км 10/10 600 м
[Cb cap]
+17.2 +9.1 59 +17 +17 1015.4 998.2
06 20.08 ЮВ 4 50 км 10/10 600 м
[Cb cap]
+16.2 +9.0 62 +16 +16 1016.0 998.7
09 20.08 В 2 50 км {ливн. осадки} 10/10 600 м
[Cb cap]
+15.8 +10.7 72 +16 +16 1016.7 999.3

 

Местоположение метеостанции Амга (Якутия, Россия): широта 60.90 долгота 131.90 высота над уровнем моря 146 м.

В архиве по умолчанию представлена погода в Амге за последнюю неделю. Архивные данные за месяц целиком и за предыдущие месяцы, начиная с января 2011 года, Вы можете получить, выбрав интересующий диапазон дат из раскрывающегося списка и нажав кнопку "Ввод!".


*Определитесь, кто Вы:
робот инопланетянин человек

Внимание! Время в таблицах - всемирное. Для получения местного времени необходимо прибавить поправку, которая равна 9 ч.

Смотрите также архив погоды в соседних городах и на ближайших метеорологических станциях:

Погода в Тегюльте (Якутия, Россия) (114 км)
Погода в Чурапче (Якутия, Россия) (131 км)
Погода в Усть-Мае (Якутия, Россия) (149 км)
Погода в Усть-Миле (Якутия, Россия) (154 км)
Погода в Покровске (Якутия, Россия) (163 км)
Погода в Якутске (Якутия, Россия) (173 км)
Погода в Ытык-Кюёле (Якутия, Россия) (184 км)
Погода в Охотском Перевозе (Якутия, Россия) (220 км)
Погода в Намцах (Якутия, Россия) (236 км)
Погода в Крест-Хальджае (Якутия, Россия) (251 км)

Пояснения к столбцам:

Ветер - указаны скорость ветра в м/с - средняя за 10 мин, порывы в срок и между сроками (в фигурных скобках) и направление, откуда дует ветер: С - северный, СВ - северо-восточный, В - восточный, ЮВ - юго-восточный, Ю - южный, ЮЗ - юго-западный, З - западный, СЗ - северо-западный.
Видимость - горизонтальная дальность видимости в метрах или километрах. При видимости от 1 до 10 км при отсутствии осадков обычно наблюдается дымка, при ухудшении видимости до 1 км и менее - туман. В сухую погоду видимость может ухудшаться дымом, пылью или мглою.
Явления - указаны атмосферные явления, наблюдавшиеся в срок или в последний час перед сроком; фигурными скобками обозначены явления, наблюдавшиеся между сроками (за 1-3 часа до срока); квадратными скобками обозначены град или гололедные отложения с указанием их диаметра в мм.
Облачность - указаны через наклонную черту общая и нижняя облачность в баллах и высота нижней границы облаков в метрах; квадратными скобками обозначены формы облаков: Ci - перистые, Cs - перисто-слоистые, Cc - перисто-кучевые, Ac - высококучевые, As - высокослоистые, Sc - слоисто-кучевые, Ns - слоисто-дождевые, Cu - кучевые, Cb - кучево-дождевые. Подробнее классификацию облаков см. в Атласе облаков (PDF).
T - Температура воздуха - температура, измеренная на высоте 2 м над землей.
Td - Температура точки росы - температура, при понижении до которой содержащийся в воздухе водяной пар достигнет насыщения.
f - Относительная влажность воздуха - влажноcть воздуха, измеренная на высоте 2 м над землей.
Te - Эффективная температура - температура, которую ощущает одетый по сезону человек в тени. Характеристика душности погоды. При расчете учитывается влияние влажности воздуха и скорости ветра на теплоощущения человека.
Tes - Эффективная температура на солнце - температура, которую ощущает человек, с поправкой на солнечный нагрев. Характеристика знойности погоды. Зависит от высоты солнца над горизонтом, облачности и скорости ветра. Ночью, в пасмурную погоду, а также при ветре 12 м/с и более поправка равна нулю.
P - Атмосферное давление - приведенное к уровню моря атмосферное давление.
Po - Атмосферное давление - измеренное на уровне метеостанции атмосферное давление.
Tmin - Минимальная температура - минимум температуры воздуха на высоте 2 м над землей.
Tmax - Максимальная температура - максимум температуры воздуха на высоте 2 м над землей.
R - Количество осадков - Количество выпавших осадков за период времени, мм. При наведении курсора мыши на число - период времени, за который выпало указанное количество осадков.
R24 - Количество осадков - Количество выпавших осадков за 24 часа, мм.
S - Снежный покров - Высота снежного покрова, см. При наведении курсора мыши на число - состояние снежного покрова и степень покрытия местности в баллах.